logo tempoitalia

Diretta Meteo Lisbona-Portela, Portogallosabato 28 marzo ore 21:30

Mappa
Sereno 13 °C Sereno 24 Ore: T.min 8 T.max 18
Ponente Nord-Ovest Km/h 16.7 Punto di rugiada: 8 °C Umidità: 71% Visibilità: 10 Km
Il sole sorge alle: 06:24 Il sole tramonta alle: 18:58
28 Marzo 2020 21:30 tempo osservato: Sereno Sereno 13 71 1018 vento: Nord NO 16.7
28 Marzo 2020 20:30 tempo osservato: Sereno Sereno 13 71 1018 vento: Nord NO 16.7
28 Marzo 2020 20:00 tempo osservato: Sereno Sereno 14 67 1017 vento: Nord NO 13
28 Marzo 2020 19:30 tempo osservato: Sereno Sereno 15 58 1017 vento: Nord N/NO 9.3
28 Marzo 2020 19:00 tempo osservato: Sereno Sereno 16 47 1016 vento: Nord NE 13
28 Marzo 2020 18:30 tempo osservato: Sereno Sereno 17 48 1016 vento: Nord E/NE 14.8
28 Marzo 2020 18:00 tempo osservato: Sereno Sereno 17 45 1016 vento: Nord N/NE 7.4
28 Marzo 2020 17:30 tempo osservato: Sereno Sereno 17 45 1016 vento: Nord NE 13
28 Marzo 2020 17:00 tempo osservato: Sereno Sereno 18 39 1016 vento: Nord E 11.1
28 Marzo 2020 16:30 tempo osservato: Sereno Sereno 18 42 1015 vento: Nord N/NE 11.1
28 Marzo 2020 16:00 tempo osservato: Sereno Sereno 18 39 1015 vento: Nord E/NE 13
28 Marzo 2020 15:30 tempo osservato: Sereno Sereno 18 39 1015 vento: Nord E 13
28 Marzo 2020 15:00 tempo osservato: Sereno Sereno 17 45 1015 vento: Nord N/NE 13
28 Marzo 2020 14:30 tempo osservato: Sereno Sereno 17 45 1016 vento: Nord E 14.8
28 Marzo 2020 13:30 tempo osservato: Poco Nuvoloso Poco Nuvoloso 17 45 1016 vento: Nord E/NE 18.5
28 Marzo 2020 13:00 tempo osservato: Poco Nuvoloso Poco Nuvoloso 16 47 1016 vento: Nord E 22.2
28 Marzo 2020 12:30 tempo osservato: Poco Nuvoloso Poco Nuvoloso 16 51 1016 vento: Nord E 20.3
28 Marzo 2020 12:00 tempo osservato: Poco Nuvoloso Poco Nuvoloso 16 51 1016 vento: Nord NE 25.9
28 Marzo 2020 11:30 tempo osservato: Poco Nuvoloso Poco Nuvoloso 16 51 1016 vento: Nord NE 22.2
28 Marzo 2020 11:00 tempo osservato: Sereno Sereno 14 54 1016 vento: Nord NE 24
28 Marzo 2020 10:30 tempo osservato: Sereno Sereno 13 58 1016 vento: Nord E/NE 25.9
28 Marzo 2020 10:00 tempo osservato: Sereno Sereno 13 58 1016 vento: Nord E/NE 25.9
28 Marzo 2020 09:30 tempo osservato: Sereno Sereno 12 62 1016 vento: Nord E/NE 22.2
28 Marzo 2020 09:00 tempo osservato: Sereno Sereno 12 62 1016 vento: Nord NE 20.3
28 Marzo 2020 08:30 tempo osservato: Sereno Sereno 11 66 1016 vento: Nord E/NE 16.7
28 Marzo 2020 08:00 tempo osservato: Sereno Sereno 10 71 1016 vento: Nord E/NE 16.7
28 Marzo 2020 07:30 tempo osservato: Sereno Sereno 9 70 1016 vento: Nord NE 14.8
28 Marzo 2020 07:00 tempo osservato: Sereno Sereno 8 75 1015 vento: Nord NE 14.8
28 Marzo 2020 06:30 tempo osservato: Sereno Sereno 8 75 1015 vento: Nord NE 13
28 Marzo 2020 06:00 tempo osservato: Sereno Sereno 8 75 1015 vento: Nord NE 11.1
28 Marzo 2020 05:30 tempo osservato: Sereno Sereno 8 75 1015 vento: Nord NE 13
28 Marzo 2020 05:00 tempo osservato: Sereno Sereno 8 81 1015 vento: Nord NE 11.1
28 Marzo 2020 04:30 tempo osservato: Sereno Sereno 9 75 1014 vento: Nord NE 11.1
28 Marzo 2020 04:00 tempo osservato: Sereno Sereno 9 75 1014 vento: Nord NE 11.1
28 Marzo 2020 03:30 tempo osservato: Sereno Sereno 9 75 1014 vento: Nord E/NE 13
28 Marzo 2020 03:00 tempo osservato: Sereno Sereno 10 71 1014 vento: Nord NE 13
28 Marzo 2020 02:30 tempo osservato: Sereno Sereno 10 76 1014 vento: Nord E/NE 14.8
28 Marzo 2020 02:00 tempo osservato: Sereno Sereno 11 71 1014 vento: Nord E/NE 14.8
28 Marzo 2020 01:30 tempo osservato: Sereno Sereno 11 71 1014 vento: Nord E/NE 13
28 Marzo 2020 01:00 tempo osservato: Sereno Sereno 10 76 1014 vento: Nord N/NE 11.1
28 Marzo 2020 00:30 tempo osservato: Poco Nuvoloso Poco Nuvoloso 11 76 1014 vento: Nord N/NO 11.1
28 Marzo 2020 00:00 tempo osservato: Poco Nuvoloso Poco Nuvoloso 11 76 1014 vento: Nord NO 9.3
27 Marzo 2020 23:30 tempo osservato: Sereno Sereno 11 76 1013 vento: Nord N/NO 11.1
27 Marzo 2020 23:00 tempo osservato: Sereno Sereno 11 76 1013 vento: Nord NO 13
27 Marzo 2020 22:30 tempo osservato: Sereno Sereno 12 71 1013 vento: Nord NO 14.8
27 Marzo 2020 22:00 tempo osservato: Sereno Sereno 11 76 1013 vento: Nord N/NO 14.8
27 Marzo 2020 21:30 tempo osservato: Sereno Sereno 12 66 1013 vento: Nord NO 14.8
27 Marzo 2020 21:00 tempo osservato: Sereno Sereno 12 66 1012 vento: Nord NO 16.7